Flag for Germany Weather past 2 weeks in Hamm, North Rhine-Westphalia, Germany

Now
55 °F

Sunny.


Feels Like: 52 °F
Forecast: 50 / 63 °F
Wind: 12 mph from South

Location: Dortmund / Wickede

Current Time: Aug 22, 2014 at 9:07:06 AM

Latest Report: Aug 22, 2014 at 8:20 AM


Visibility: 10 mi

Pressure: 29.92 "Hg

Humidity: 72%

Dew point: 46 °F

Location of HammLocation

Historic Weather in Hamm — Graph

°F

Hamm temperature yesterday

Maximum temperature yesterday: 63 °F (at 12:50 PM)
Minimum temperature yesterday: 46 °F (at 5:20 AM)
Average temperature yesterday: 57 °F

Past Weeks' High & Low Weather Summary

 TemperatureHumidityPressure
High79 °F (Aug 8, 1:20 PM)94% (Aug 15, 7:20 AM)30.09 "Hg (Aug 15, 7:20 AM)
Low46 °F (Aug 21, 5:20 AM)42% (Aug 8, 3:20 PM)29.59 "Hg (Aug 10, 7:20 PM)
Average61 °F70%29.87 "Hg
* Reported Aug 7 7:20 AM — Aug 22 7:50 AM, Hamm, Weather by CustomWeather, © 2014

Note: Actual official high and low records may vary slightly from our data, if they occured in-between our weather recording intervals... More about our weather records

Advertising

Hamm weather history for previous 24 hours

 ConditionsComfort  
Time TempWeatherWind HumidityBarometerVisibility
7:50 AM
Aug 22
54 °FSunny.12 mph72%29.92 "Hg10 mi
7:20 AM52 °FClear.10 mph77%29.92 "Hg10 mi
6:50 AM52 °FClear.9 mph77%29.92 "Hg10 mi
6:20 AM52 °FClear.10 mph77%29.92 "Hg10 mi
5:50 AM52 °FClear.9 mph77%29.92 "Hg10 mi
5:20 AM52 °FClear.9 mph77%29.92 "Hg10 mi
10:20 PM
Aug 21
55 °FClear.12 mph72%29.98 "Hg10 mi
9:50 PM57 °FLight rain. Passing clouds.15 mph67%29.98 "HgN/A
9:20 PM57 °FSunny.7 mph67%29.98 "Hg10 mi
8:50 PM55 °FSunny.6 mph67%29.98 "Hg10 mi
8:20 PM59 °FSunny.6 mph59%29.98 "Hg10 mi
7:50 PM59 °FSunny.8 mph55%29.98 "Hg10 mi
7:20 PM61 °FSunny.8 mph48%29.98 "Hg10 mi
6:50 PM63 °FSunny.10 mph52%29.98 "Hg10 mi
6:20 PM63 °FSunny.12 mph49%29.98 "Hg10 mi
5:50 PM61 °FPassing clouds.13 mph52%29.98 "HgN/A
5:20 PM63 °FSunny.12 mph56%29.98 "Hg10 mi
4:50 PM63 °FSunny.10 mph52%30.01 "Hg10 mi
4:20 PM63 °FSunny.12 mph52%30.01 "Hg10 mi
3:50 PM61 °FPassing clouds.8 mph52%30.01 "HgN/A
3:20 PM63 °FSunny.9 mph52%30.01 "Hg10 mi
2:50 PM63 °FSunny.12 mph52%30.01 "Hg10 mi
2:20 PM63 °FPassing clouds.14 mph52%30.01 "HgN/A
1:50 PM63 °FScattered clouds.10 mph56%30.04 "HgN/A
1:20 PM59 °FScattered clouds.8 mph63%30.04 "HgN/A
12:50 PM63 °FScattered clouds.9 mph59%30.04 "HgN/A
12:20 PM61 °FScattered clouds.10 mph63%30.04 "HgN/A
11:50 AM59 °FScattered clouds.9 mph63%30.04 "HgN/A
11:20 AM59 °FScattered clouds.10 mph72%30.04 "HgN/A
10:50 AM55 °FSunny.10 mph72%30.04 "Hg10 mi
10:20 AM55 °FSunny.8 mph77%30.04 "Hg10 mi
9:50 AM55 °FSunny.10 mph77%30.04 "Hg10 mi
9:20 AM54 °FPassing clouds.9 mph82%30.04 "HgN/A
Weather by CustomWeather, © 2014

See weather overviewHow to use our weather pages